Temp
24 25 25 24 22 20 22 24 23 24 24 23 23 22 20 19 20 21 18 19 18 18 17 18 18 18 18 18 18 17 18 18 17 18 18 18 16 16 16 16 16 16 15 15 15 15 15 15 15
23 24 24 19 20 21 21 24 23 24 22 20 21 20 19 19 19 17 17 18 19 18 18 18 18 18 17 17 17 18 18 17 17 17 18 18 16 16 16 16 16 15 15 15 15 15 15 15 15
24 23 21 20 19 20 22 23 22 23 22 23 21 19 19 19 18 18 19 18 18 18 17 18 18 17 17 17 17 17 17 17 17 17 18 17 16 16 16 16 16 15 15 15 14 14 15 16 16
23 22 19 21 22 24 23 22 21 22 24 22 20 18 19 19 20 20 18 18 18 18 18 18 17 17 17 17 17 17 18 17 17 18 18 17 16 15 15 15 15 15 15 14 14 15 15 16 16
22 18 20 22 23 24 23 22 21 23 23 23 21 18 17 20 20 19 18 18 19 18 18 17 17 17 17 17 17 17 17 17 17 18 17 16 16 15 15 14 14 14 14 14 15 16 16 16 16
19 18 20 21 23 25 24 22 22 22 22 20 18 17 17 19 19 18 19 19 19 18 18 17 17 17 17 17 17 17 17 18 18 18 17 17 16 15 14 14 14 14 14 14 15 16 16 16 16
19 18 20 22 22 23 24 22 22 22 21 22 18 17 17 18 19 19 20 20 19 19 18 17 16 17 17 17 17 17 17 17 17 17 17 16 15 14 14 14 14 14 15 15 16 16 16 16 16
18 19 22 22 22 24 24 23 22 22 22 21 19 17 17 18 19 19 20 19 19 18 18 17 17 16 17 16 17 17 17 17 17 17 16 16 15 15 15 15 15 15 15 16 16 16 16 15 16
19 20 20 21 21 22 23 23 23 22 21 19 17 17 19 20 19 19 18 18 17 17 17 17 16 16 16 16 16 17 17 17 16 16 16 16 16 15 15 15 15 16 16 15 15 15 15 15 15
18 18 20 21 21 21 23 23 22 22 21 18 17 16 18 19 18 18 17 16 16 16 17 17 16 16 16 16 16 16 16 16 16 16 16 16 16 16 16 16 16 16 15 15 15 15 15 15 15
17 19 20 22 23 22 23 23 22 20 21 19 18 16 16 17 17 17 17 17 17 18 17 17 17 16 16 16 16 16 16 16 16 16 15 15 15 15 16 16 16 15 15 15 15 15 15 15 15
18 18 18 19 21 22 23 22 22 22 23 22 18 16 16 16 16 17 17 17 17 18 18 17 17 17 16 16 16 16 16 16 16 15 15 15 15 16 16 16 15 15 15 15 15 15 15 15 15
17 18 18 19 20 21 22 22 22 22 22 18 16 16 16 16 17 18 20 18 19 19 18 17 17 17 17 17 16 16 15 16 16 15 15 15 15 15 15 15 15 15 15 15 15 15 15 15 15
17 17 19 20 20 20 21 21 22 22 18 15 16 15 16 16 17 18 19 19 18 19 19 18 17 17 17 17 17 16 16 16 15 15 15 15 15 15 15 15 15 15 15 15 15 15 15 15 15
17 17 17 19 20 20 21 20 20 21 18 16 15 15 15 16 18 18 18 19 19 18 19 19 17 18 17 18 17 17 16 15 15 15 15 15 15 15 15 15 15 15 15 15 15 15 15 15 16
16 17 16 18 19 20 20 20 20 20 18 17 15 14 15 15 17 18 19 19 19 18 19 18 18 17 18 18 18 17 16 16 16 16 15 15 16 15 15 15 15 15 15 15 15 15 15 15 16
15 14 15 17 18 19 19 19 20 20 18 18 15 14 15 15 15 17 18 18 18 19 19 18 18 18 17 17 17 17 17 16 16 16 16 16 16 16 16 16 15 15 15 15 15 15 15 15 15
14 15 15 15 19 17 17 18 19 20 18 18 17 15 15 15 15 16 17 18 18 18 19 18 18 18 17 17 17 17 17 17 16 16 16 16 16 16 15 15 15 15 15 15 15 15 15 15 15
15 15 15 16 18 18 17 19 17 18 18 17 16 16 15 16 17 17 17 18 17 18 18 18 18 18 17 17 17 17 17 17 16 16 16 16 16 16 15 15 15 15 15 15 15 15 15 15 15
14 15 15 16 17 16 17 17 19 17 17 18 17 17 16 16 16 17 17 17 17 18 18 18 18 18 17 16 17 17 16 17 17 17 16 16 16 16 16 15 15 15 15 15 15 15 15 15 15
14 14 15 16 18 17 17 16 17 17 17 17 17 19 18 18 17 17 16 16 17 17 17 18 18 17 17 17 16 16 16 16 16 16 16 16 16 16 16 16 15 15 15 15 15 15 15 15 15
14 14 16 16 16 15 16 16 17 18 18 17 18 18 18 18 18 18 17 17 17 17 18 18 17 17 17 17 16 15 15 15 15 15 16 16 16 16 16 16 16 15 15 15 15 15 15 15 14
15 15 15 15 16 15 16 15 16 17 16 18 19 20 20 20 19 18 18 18 17 17 17 18 17 17 17 17 16 15 15 15 15 15 15 16 16 16 16 16 16 15 15 15 15 15 15 15 15
14 14 13 13 14 15 16 16 16 17 17 18 18 18 19 18 18 18 19 19 18 17 17 17 17 17 17 17 16 15 15 15 15 15 15 15 16 16 16 16 16 16 15 15 15 15 15 15 14
15 14 14 14 14 15 16 14 18 17 17 19 19 19 16 16 16 17 16 16 18 17 17 17 17 16 16 16 16 15 15 15 15 14 15 14 14 15 15 16 16 15 16 15 15 15 15 15 14
14 15 13 14 14 15 13 14 16 16 20 20 19 17 16 15 15 15 16 16 18 17 17 17 16 16 16 16 16 16 15 15 15 15 15 15 15 15 15 16 16 16 16 16 15 15 15 15 15
14 14 16 13 5 11 13 14 15 16 16 17 17 15 15 15 15 14 15 16 17 17 17 17 16 16 16 16 16 16 16 15 15 15 15 15 15 15 15 15 16 16 16 16 15 15 15 15 15
16 16 15 14 12 12 13 13 17 17 17 19 16 15 15 14 15 15 14 16 16 17 17 17 17 17 18 18 17 16 16 15 15 15 15 15 15 15 15 15 15 16 16 15 15 14 15 14 15
13 14 15 16 12 14 13 15 14 18 18 19 16 16 15 14 14 14 13 15 16 16 16 16 16 16 16 16 16 16 16 16 15 15 15 15 15 15 15 15 15 15 15 15 14 14 13 13 13
14 15 15 15 15 12 12 16 16 14 14 15 15 15 15 14 13 12 12 13 15 16 16 17 16 17 17 17 16 16 16 16 15 15 15 15 15 15 15 15 15 14 14 15 14 13 13 13 12
Height
821 818 816 816 843 851 855 843 831 833 832 825 822 828 840 844 847 855 846 848 849 852 855 857 858 860 861 862 864 865 866 867 868 868 869 869 870 870 870 871 871 871 871 870 870 870 871 871 872
822 819 818 827 855 865 860 835 837 831 829 829 829 833 841 849 843 845 848 850 849 853 855 856 858 860 861 863 864 866 867 868 869 870 870 871 873 873 873 873 874 873 873 872 872 872 873 873 874
822 821 827 841 856 863 856 834 835 830 827 825 834 835 842 847 845 845 846 849 850 853 856 857 858 860 862 863 865 866 867 869 870 871 872 873 874 875 875 876 876 876 875 874 874 874 875 876 876
823 824 830 845 848 836 834 833 830 830 826 825 833 846 843 843 843 843 847 850 851 854 857 857 859 861 863 863 864 866 867 869 872 873 874 875 875 877 878 878 878 877 877 876 876 877 878 879 879
826 831 849 848 843 830 827 827 829 829 829 830 831 849 849 843 844 845 847 850 852 855 857 859 861 862 864 864 865 866 867 869 872 874 876 877 877 878 879 879 879 879 878 878 878 879 880 880 881
836 839 855 854 842 828 826 824 826 828 830 834 840 847 849 846 845 848 848 851 853 856 858 860 862 864 865 867 867 867 868 870 872 874 876 878 879 880 880 880 880 880 881 881 881 881 882 882 882
838 847 852 845 842 835 828 823 828 829 830 832 833 849 849 847 847 849 850 852 855 857 860 861 863 865 867 868 870 870 871 872 872 874 876 878 879 880 881 881 882 882 882 882 883 883 883 884 884
836 842 845 841 843 835 822 823 823 824 829 826 828 848 851 843 848 849 851 853 856 858 860 862 864 866 868 870 871 872 873 874 874 875 876 878 879 880 881 882 883 883 883 883 884 884 885 885 885
832 847 850 845 843 839 823 826 824 822 826 830 832 835 833 838 846 850 852 854 856 858 860 862 864 866 869 870 872 873 873 874 875 877 878 878 879 880 882 883 884 884 884 885 885 885 886 886 886
841 848 842 835 835 837 825 824 825 828 831 836 836 834 833 837 843 846 848 852 855 857 860 861 864 866 868 870 872 874 874 875 876 877 878 879 880 881 881 882 883 884 885 885 886 886 886 886 886
842 844 835 831 829 829 829 826 823 831 835 832 833 836 836 839 842 844 846 847 851 854 857 860 863 865 867 869 871 873 875 876 876 877 878 879 879 881 881 882 883 884 885 885 886 886 886 886 886
847 837 833 836 831 830 831 825 826 826 824 821 824 829 834 838 840 842 845 847 848 851 854 858 861 864 867 869 870 872 874 876 877 878 879 879 879 880 881 882 883 884 884 885 885 886 886 886 886
844 838 834 831 834 834 829 829 827 825 820 821 826 831 833 836 838 840 842 846 847 849 853 856 858 861 864 867 869 872 873 875 877 878 878 879 880 880 880 881 882 883 884 884 885 885 885 886 886
837 840 837 834 834 836 834 831 827 824 822 826 827 831 833 834 836 839 840 842 845 847 850 854 855 858 861 864 867 869 872 873 875 876 877 878 880 880 880 881 881 882 883 883 884 885 885 886 886
836 843 841 833 831 833 830 837 833 822 824 829 830 830 833 833 835 834 835 836 840 844 847 849 852 854 856 859 862 864 868 871 873 874 875 876 877 879 880 881 881 882 883 884 885 885 885 885 885
843 843 852 835 833 830 835 839 826 822 826 829 830 831 830 830 829 830 832 833 835 840 842 846 849 851 852 855 858 861 863 866 868 871 873 875 876 877 878 879 879 881 881 882 882 883 883 884 884
847 857 852 844 831 830 832 830 820 817 822 825 829 828 826 827 828 826 826 829 830 834 837 841 844 847 849 853 855 858 861 863 865 867 868 870 871 873 874 875 877 878 879 880 881 882 882 883 883
853 851 847 847 830 834 835 826 819 815 820 821 821 821 821 821 818 817 819 824 825 829 834 836 839 842 846 850 853 855 858 860 861 862 864 866 868 871 873 874 875 876 877 877 878 879 880 881 882
840 843 845 836 828 833 831 822 823 815 818 819 818 818 818 814 808 810 814 818 823 825 827 830 833 836 841 844 847 849 849 855 857 858 859 862 865 868 869 870 871 873 874 875 877 879 880 880 880
842 843 843 835 827 834 832 825 815 816 814 811 812 811 812 811 808 807 810 813 815 817 820 823 825 829 833 838 840 843 846 847 850 853 855 858 859 861 863 866 868 870 871 873 874 876 876 877 878
841 845 843 840 828 828 831 829 818 810 807 804 802 799 800 800 801 800 803 804 806 809 812 814 818 822 827 831 835 839 842 845 847 848 850 852 855 857 858 861 863 865 867 868 870 872 872 873 874
841 836 837 839 837 847 830 831 811 802 802 801 794 794 793 791 789 790 792 795 797 798 803 808 811 815 819 825 828 830 832 835 836 839 842 844 848 850 852 854 856 859 861 863 864 866 867 870 870
831 828 834 838 839 840 834 840 810 801 804 794 785 781 780 779 780 781 783 784 787 792 794 797 803 807 811 816 821 824 825 828 832 835 836 837 840 843 845 848 851 853 855 856 858 860 861 863 864
825 832 837 842 841 838 825 831 803 798 794 785 778 773 772 772 771 770 771 774 778 784 788 790 794 798 803 808 813 817 819 822 826 828 830 832 833 836 838 841 843 846 848 849 850 852 855 856 857
821 831 840 842 840 821 813 831 785 786 781 770 767 764 766 767 767 765 765 768 770 775 779 783 787 791 795 799 803 808 813 817 817 819 821 826 827 827 827 831 834 836 838 840 843 845 847 849 850
816 820 833 832 831 818 822 811 786 774 763 760 758 761 762 764 763 760 757 759 761 765 769 774 778 783 787 791 795 799 805 808 810 811 814 815 817 817 821 823 826 828 830 832 835 838 840 841 842
815 815 800 824 873 838 817 797 782 772 769 762 759 760 757 756 756 757 753 752 755 758 761 765 770 774 780 783 787 790 793 797 798 801 805 807 809 810 813 814 816 818 821 823 825 827 828 830 830
794 797 815 817 830 831 807 803 775 770 767 752 757 758 755 754 751 751 750 749 750 752 754 759 763 765 768 772 776 780 784 788 791 796 797 798 799 802 803 805 808 810 812 813 815 816 816 818 820
799 798 797 796 814 805 812 784 766 754 748 743 750 750 752 752 748 748 748 749 748 749 752 755 759 764 768 770 772 776 778 781 784 786 788 788 792 793 795 796 798 799 802 803 806 807 808 808 810
786 785 790 793 793 800 799 771 751 757 754 751 749 750 750 750 748 747 747 747 746 746 750 752 755 758 762 765 768 770 773 775 777 778 780 783 785 787 788 790 792 793 795 797 798 798 799 800 801
Wind_Speed
17 16 11 4 4 5 2 3 4 3 2 3 2 8 8 4 2 2 10 13 23 21 16 13 15 14 15 16 16 17 16 13 17 19 17 17 18 20 19 19 19 18 18 18 18 19 19 19 18
16 12 4 2 4 2 4 2 4 3 5 9 8 4 6 2 1 9 12 23 24 21 16 15 17 16 17 17 15 14 13 15 17 18 16 14 18 18 17 18 17 16 17 17 18 19 19 18 18
10 5 3 4 3 4 3 3 6 3 4 3 4 6 3 3 4 10 17 25 23 19 17 15 17 18 17 16 15 16 15 16 15 18 17 17 16 17 16 16 15 15 16 17 18 18 19 19 19
8 5 4 3 3 4 6 6 5 6 2 6 5 7 3 2 6 10 28 24 22 19 17 17 17 17 15 15 16 16 22 17 17 18 16 16 15 16 15 15 14 15 15 17 17 18 18 18 19
3 3 3 1 3 3 2 6 6 4 4 4 3 4 2 3 7 28 28 24 22 20 18 19 18 17 17 18 22 20 20 19 17 14 13 13 13 14 14 14 14 14 14 16 17 18 19 19 18
3 2 2 3 2 1 2 5 6 5 5 5 6 5 4 6 26 25 25 24 20 20 19 19 18 17 17 19 21 21 20 18 17 15 13 11 9 13 14 14 13 14 14 15 17 18 17 17 17
5 3 2 1 1 2 5 6 5 6 7 3 10 5 1 4 24 25 23 20 19 18 19 19 18 17 17 18 19 19 20 19 17 16 13 10 12 14 13 13 13 13 14 15 17 17 17 16 14
3 3 1 2 2 2 1 3 2 3 3 7 5 6 5 13 23 23 21 22 21 20 19 20 18 20 18 19 19 20 19 19 17 17 14 10 14 14 13 13 13 13 13 15 16 16 15 13 11
2 3 2 2 5 6 3 3 2 1 5 3 3 4 4 29 21 20 23 24 23 22 21 19 20 22 19 19 19 19 20 19 17 15 12 13 14 14 13 12 12 12 13 13 12 10 10 9 9
2 3 4 5 1 4 2 1 5 4 3 4 3 5 17 30 23 23 22 21 23 26 22 21 22 22 20 19 19 21 17 19 18 15 15 15 13 13 13 13 12 12 13 11 9 7 7 7 7
2 5 3 2 2 2 4 2 1 8 2 6 7 7 11 20 21 19 20 27 28 27 25 23 23 22 21 21 21 22 20 18 17 17 16 14 12 13 12 13 13 13 11 9 7 6 6 5 6
2 5 5 5 8 6 4 1 1 3 3 3 9 17 17 13 17 21 20 21 26 28 26 25 24 23 20 19 20 22 22 20 21 18 14 16 14 13 13 13 13 11 9 8 7 6 6 6 6
2 3 5 5 9 8 4 3 2 3 4 6 15 13 14 16 18 23 22 21 26 26 27 28 27 25 21 19 21 21 22 21 21 17 14 15 13 14 13 13 12 10 10 8 8 7 7 6 5
6 2 4 6 5 4 4 3 1 2 3 9 13 12 10 16 21 21 25 26 25 27 28 28 29 26 25 20 20 22 23 22 20 21 17 16 15 16 15 14 13 11 11 10 9 7 7 6 4
3 4 7 8 2 3 2 6 5 4 6 8 8 9 10 15 23 24 28 28 30 30 29 29 32 28 29 24 22 22 24 22 22 21 21 20 18 17 15 14 13 12 11 11 9 9 8 6 5
5 2 3 6 7 6 6 14 8 8 8 9 9 8 11 14 24 29 30 32 34 32 35 31 31 31 30 29 25 25 25 25 25 25 23 21 20 17 18 17 16 15 14 13 13 11 9 8 8
3 4 5 6 9 5 8 8 10 8 9 9 9 10 12 11 17 27 34 35 33 36 35 36 36 35 32 31 27 26 27 27 26 25 24 25 23 22 22 20 18 17 17 15 15 13 11 10 9
5 4 4 7 5 8 9 16 5 5 9 11 11 11 12 13 19 31 36 38 34 34 34 33 38 37 35 33 30 28 28 29 27 27 27 26 26 25 23 21 20 19 20 18 18 16 13 10 9
6 5 9 4 10 5 15 20 10 12 5 8 9 8 10 15 25 30 33 36 33 35 37 37 40 41 37 35 36 31 34 33 32 30 30 30 28 28 27 26 25 23 23 20 18 17 15 14 10
4 2 4 4 4 7 8 17 15 7 7 9 10 11 10 7 10 18 26 31 35 39 39 39 43 45 45 38 36 34 35 37 36 34 33 32 31 30 31 29 28 26 25 22 21 21 19 17 16
9 8 3 5 2 3 2 9 9 7 10 8 10 14 12 14 13 13 22 30 37 35 42 44 45 44 45 43 37 32 30 33 34 35 35 35 34 32 32 32 31 29 28 27 24 25 25 20 20
15 8 6 6 2 5 5 8 8 9 15 10 15 13 16 15 14 13 22 28 34 39 45 46 44 45 46 45 37 35 32 29 33 35 39 37 37 36 35 34 34 34 32 30 28 29 29 25 20
8 8 13 7 4 3 4 4 6 5 9 14 17 18 18 17 14 15 20 30 35 37 43 47 45 45 45 45 43 37 35 32 29 31 35 40 39 40 38 37 36 35 37 34 33 32 32 31 31
9 5 4 3 3 12 11 8 8 11 9 8 12 13 14 13 13 15 25 31 33 36 37 40 42 45 45 44 44 41 38 35 29 32 35 37 40 41 42 41 41 40 38 39 38 36 37 35 34
10 9 4 7 7 17 10 9 22 7 8 14 14 14 10 10 9 11 11 18 26 31 36 38 40 40 43 45 44 45 40 36 38 35 35 31 34 37 45 45 45 45 43 42 41 41 40 38 37
19 16 5 7 6 9 3 9 7 12 21 21 14 9 6 8 8 9 10 18 26 32 36 37 37 39 38 43 44 43 43 40 39 38 37 38 39 42 40 44 47 47 46 45 43 43 43 42 41
8 16 12 3 3 2 6 8 6 8 10 15 15 8 10 9 8 9 10 16 25 28 34 37 36 37 36 42 42 43 46 44 42 41 35 38 39 37 37 41 44 45 48 47 46 46 46 46 45
15 7 11 4 5 6 5 6 10 3 13 15 7 9 9 8 7 5 5 6 16 28 33 36 38 39 44 46 44 41 41 42 43 36 37 38 40 40 42 42 43 43 46 47 47 47 48 47 48
6 13 9 6 3 5 3 7 7 18 18 19 9 7 7 8 6 4 2 2 3 8 23 27 30 31 28 34 35 34 36 39 40 39 40 43 43 42 44 45 46 46 46 46 44 45 43 47 45
14 12 19 10 19 3 1 11 3 8 10 7 7 6 5 6 6 5 3 3 4 7 8 12 22 28 30 31 34 34 36 37 38 41 42 41 42 41 46 45 45 45 44 44 45 45 43 47 44
Wind_Direction
332 337 333 11 53 64 281 248 171 138 61 345 19 104 115 72 45 163 151 154 150 149 152 150 146 139 137 129 122 115 110 114 115 116 111 100 97 98 97 96 92 92 90 89 90 96 99 92 83
333 343 14 72 87 69 275 252 139 182 156 115 93 79 47 84 83 119 121 155 149 150 151 147 146 148 141 133 127 124 127 129 124 119 112 104 105 102 98 99 97 95 93 90 90 98 101 94 86
338 359 73 95 126 174 206 173 152 138 165 117 89 53 103 135 121 150 161 153 151 148 150 145 147 151 146 139 130 126 131 130 127 121 113 114 113 107 107 103 101 99 97 94 93 101 105 100 95
350 5 26 98 215 237 191 176 158 144 72 66 115 71 40 306 148 162 152 154 149 148 150 145 144 149 148 145 135 130 134 126 126 116 113 114 109 112 112 108 107 104 102 98 97 106 108 102 97
29 54 58 202 242 289 80 163 170 126 116 94 125 159 74 5 150 145 154 157 151 150 151 145 143 143 141 142 136 139 133 130 131 124 137 119 114 114 118 113 111 108 105 103 106 112 111 105 102
32 83 78 216 223 251 164 194 159 138 140 163 80 104 173 130 148 155 158 157 155 153 154 149 146 147 144 143 145 153 146 143 138 142 137 150 139 126 124 119 116 109 106 107 108 109 111 106 103
108 76 217 305 251 299 186 154 169 158 139 148 140 103 227 189 158 163 163 159 162 160 159 158 157 155 155 152 154 149 149 152 149 151 149 152 144 139 132 125 118 115 112 112 111 109 109 107 103
98 116 254 350 332 276 246 115 105 114 154 130 128 163 185 207 164 164 171 166 166 164 165 166 168 167 162 159 160 161 160 160 161 157 158 154 147 143 138 130 125 122 120 117 113 109 108 107 105
164 90 172 21 11 305 325 110 14 30 100 62 34 151 215 166 172 159 164 163 165 166 168 170 168 170 167 169 168 169 169 168 163 166 175 161 151 150 144 138 130 127 126 125 121 117 114 107 104
84 133 215 170 279 293 306 85 149 107 102 36 37 23 140 164 163 157 162 161 169 169 171 174 174 175 176 177 177 176 171 170 162 163 158 155 149 152 152 147 142 136 132 129 126 122 119 122 112
281 185 58 298 283 306 298 84 270 127 232 198 182 174 145 154 167 163 171 171 177 178 177 182 183 185 185 184 183 181 178 175 169 166 163 163 158 164 161 158 154 149 144 143 138 133 126 126 128
294 251 150 291 331 338 297 327 74 183 215 207 173 163 157 165 180 183 173 172 179 180 184 187 191 190 195 196 193 190 186 185 177 175 186 187 178 174 169 164 162 163 162 161 148 146 145 137 130
213 250 220 272 293 256 302 255 236 247 244 97 135 158 171 174 189 197 196 185 188 189 192 191 195 196 197 205 204 199 194 190 186 190 199 199 203 192 181 177 179 176 170 168 169 166 161 146 143
192 247 239 231 244 261 212 247 330 303 123 127 152 173 184 185 186 194 198 207 198 198 198 198 199 201 200 205 208 204 202 197 199 200 204 209 219 208 201 190 186 185 187 187 188 181 177 160 158
170 159 266 263 216 253 327 292 233 200 126 153 177 175 185 200 196 198 203 204 209 203 203 204 203 204 201 206 210 203 203 209 209 212 211 214 214 216 211 205 204 199 201 200 197 189 189 209 198
151 172 204 245 186 231 154 259 232 220 151 191 195 197 195 208 206 208 211 208 215 211 210 208 208 205 204 208 212 209 208 210 213 217 220 221 215 215 214 213 210 205 206 208 204 200 197 193 190
221 199 183 280 204 166 181 246 226 220 197 210 208 200 208 211 221 217 213 215 213 219 217 219 210 211 208 213 213 213 216 215 216 217 216 218 216 215 216 214 213 212 212 214 207 208 207 199 193
196 190 194 203 234 216 219 253 251 256 194 216 211 211 209 208 218 217 215 217 211 216 220 218 213 214 214 213 213 213 218 219 222 220 220 218 219 219 220 221 220 219 217 219 213 213 206 200 200
169 182 213 236 237 192 224 246 235 240 225 235 233 221 217 217 223 215 217 216 216 216 216 220 215 215 213 208 208 210 211 216 221 223 225 223 221 222 222 223 223 222 223 227 223 218 218 211 213
240 229 244 283 274 180 260 254 247 233 234 214 219 232 224 228 229 213 215 214 212 217 217 220 219 215 214 210 213 213 216 219 224 226 227 227 225 224 224 225 225 226 224 227 228 222 222 223 211
236 221 228 237 280 207 324 267 253 241 240 238 228 226 227 212 216 214 211 208 211 214 217 220 219 214 216 214 216 217 221 226 225 226 229 228 229 230 227 229 228 228 227 231 227 224 221 222 219
226 169 215 261 256 233 164 273 245 232 237 221 236 227 230 229 226 212 209 211 210 211 218 219 218 217 219 217 212 210 211 213 222 224 228 229 229 231 231 231 231 230 230 233 230 225 226 226 223
220 175 205 219 227 316 221 266 261 210 233 238 237 237 237 238 230 224 213 211 214 210 213 216 217 218 220 219 215 214 215 220 224 226 230 231 231 232 234 233 232 233 233 234 232 229 231 232 235
153 88 57 78 154 251 223 218 224 227 219 238 238 237 234 235 235 230 219 212 211 211 211 212 213 217 217 219 219 217 220 220 222 226 229 231 233 234 234 235 235 235 238 237 235 234 236 237 240
181 157 205 214 211 240 183 210 247 241 239 227 232 236 232 233 232 233 212 205 208 204 207 209 208 212 214 217 220 220 223 222 224 225 226 227 229 229 234 234 234 236 240 240 238 238 240 240 242
200 193 178 201 197 248 104 231 240 221 233 244 249 240 234 241 249 248 232 207 206 205 206 207 207 212 209 214 219 222 225 224 226 229 227 228 230 235 236 238 237 239 241 241 241 242 244 245 246
183 212 205 81 10 67 209 274 292 256 262 258 249 225 241 234 242 246 253 229 210 208 208 205 206 211 209 216 219 221 226 224 226 229 229 231 236 236 237 240 242 242 242 243 242 242 243 244 245
216 167 200 214 192 231 245 256 233 292 246 250 254 236 249 235 222 241 247 272 232 217 212 209 211 211 214 220 221 220 223 226 229 229 228 231 234 237 240 240 242 244 244 244 243 241 243 242 245
184 205 212 189 175 222 257 251 215 217 219 237 227 227 224 197 183 198 206 195 185 207 218 213 214 219 220 220 222 222 226 229 231 229 231 235 239 238 240 242 244 245 245 245 241 240 239 242 242
242 216 201 207 215 223 188 250 209 248 252 222 200 189 202 192 171 162 151 146 168 150 170 199 221 229 231 232 231 231 233 235 234 234 235 238 239 240 245 244 244 244 245 246 247 244 240 245 242